Date String (YYYY-MM-DD hh:mm:ss) UTC,Instrument flags,Ambient pressure (hPa),Sample flow (lpm),Bypass flow (lpm),Sample temperature (°C),Ambient temperature (°C),ASC tube jacket temperature (°C),LED temperature (°C),Box temperature (°C),Sample RH (%),Span deviation,Mass concentration (μg/m³),Mass concentration (μg/m³),Mass concentration (μg/m³)
DateTimeUTC,F1_M11,P_M11,Q1_M11,Q2_M11,T1_M11,T2_M11,T3_M11,T4_M11,T5_M11,U1_M11,ZSPAN_M11,X0_M11,X2_M11,X1_M11
2022-03-10 05:00:00,,0824.3,5.01,0.00,21.4,22.1,00.0,30.4,23.2,06.0,0000.0,0004.71,0003.25,0002.97
2022-03-10 05:01:00,,0824.3,5.01,0.00,21.6,22.8,00.0,30.4,23.5,06.0,0000.0,0004.67,0003.27,0002.99
2022-03-10 05:02:00,,0824.3,4.98,0.00,21.7,22.4,00.0,30.5,23.5,05.9,0000.0,0004.53,0003.27,0003.01
2022-03-10 05:03:00,,0824.3,5.00,0.00,21.6,21.9,00.0,30.5,23.4,05.9,0000.0,0004.52,0003.28,0003.02
2022-03-10 05:04:00,,0824.3,5.01,0.00,21.6,21.4,00.0,30.5,23.3,05.9,0000.0,0004.56,0003.29,0003.03
2022-03-10 05:05:00,,0824.3,5.00,0.00,21.5,20.9,00.0,30.5,23.1,06.0,0000.0,0004.63,0003.31,0003.04
2022-03-10 05:06:00,,0824.2,4.99,0.00,21.5,20.6,00.0,30.5,23.0,06.0,0000.0,0004.57,0003.31,0003.04
2022-03-10 05:07:00,,0824.3,5.00,0.00,21.4,20.3,00.0,30.4,22.9,06.0,0000.0,0004.51,0003.30,0003.04
2022-03-10 05:08:00,,0824.3,4.99,0.00,21.3,20.1,00.0,30.4,22.8,06.0,0000.0,0004.79,0003.32,0003.05
2022-03-10 05:09:00,,0824.3,5.00,0.00,21.3,20.5,00.0,30.4,22.8,06.0,0000.0,0004.65,0003.31,0003.04
2022-03-10 05:10:00,,0824.3,5.01,0.00,21.4,21.6,00.0,30.4,23.2,06.0,0000.0,0004.62,0003.31,0003.04
2022-03-10 05:11:00,,0824.3,5.01,0.00,21.6,22.4,00.0,30.5,23.5,05.9,0000.0,0004.55,0003.29,0003.03
2022-03-10 05:12:00,,0824.3,4.98,0.00,21.7,22.3,00.0,30.5,23.6,05.9,0000.0,0004.48,0003.27,0003.02
2022-03-10 05:13:00,,0824.3,5.00,0.00,21.7,21.8,00.0,30.5,23.5,05.9,0000.0,0004.48,0003.27,0003.01
2022-03-10 05:14:00,,0824.3,5.01,0.00,21.6,21.4,00.0,30.5,23.3,05.9,0000.0,0004.51,0003.27,0003.00
2022-03-10 05:15:00,,0824.3,5.00,0.00,21.6,20.9,00.0,30.5,23.2,05.9,0000.0,0004.51,0003.26,0002.99
2022-03-10 05:16:00,,0824.2,4.98,0.00,21.5,20.6,00.0,30.5,23.0,05.9,0000.0,0004.45,0003.25,0002.97
2022-03-10 05:17:00,,0824.2,5.00,0.00,21.4,20.3,00.0,30.5,22.9,06.0,0000.0,0004.39,0003.22,0002.93
2022-03-10 05:18:00,,0824.2,5.02,0.00,21.4,20.1,00.0,30.5,22.8,06.0,0000.0,0004.43,0003.21,0002.90
2022-03-10 05:19:00,,0824.1,5.00,0.00,21.3,20.4,00.0,30.4,22.8,06.0,0000.0,0004.34,0003.22,0002.87
2022-03-10 05:20:00,,0824.2,4.99,0.00,21.4,21.4,00.0,30.5,23.1,06.0,0000.0,0004.25,0003.20,0002.83
2022-03-10 05:21:00,,0824.3,5.00,0.00,21.6,22.2,00.0,30.5,23.4,05.9,0000.0,0004.21,0003.19,0002.82
2022-03-10 05:22:00,,0824.3,5.01,0.00,21.7,22.7,00.0,30.6,23.7,05.9,0000.0,0004.22,0003.19,0002.81
2022-03-10 05:23:00,,0824.3,5.00,0.00,21.8,22.3,00.0,30.6,23.7,05.8,0000.0,0004.34,0003.20,0002.80
2022-03-10 05:24:00,,0824.2,4.98,0.00,21.8,21.8,00.0,30.6,23.5,05.9,0000.0,0004.36,0003.21,0002.80
2022-03-10 05:25:00,,0824.2,5.01,0.00,21.7,21.3,00.0,30.6,23.3,05.9,0000.0,0004.47,0003.24,0002.83
2022-03-10 05:26:00,,0824.2,4.99,0.00,21.6,20.9,00.0,30.6,23.2,05.9,0000.0,0004.47,0003.23,0002.84
2022-03-10 05:27:00,,0824.1,5.01,0.00,21.6,20.6,00.0,30.6,23.1,05.9,0000.0,0004.45,0003.22,0002.86
2022-03-10 05:28:00,,0824.1,5.01,0.00,21.5,20.4,00.0,30.5,23.0,05.9,0000.0,0004.53,0003.25,0002.89
2022-03-10 05:29:00,,0824.1,4.99,0.00,21.4,20.2,00.0,30.5,22.9,06.0,0000.0,0004.52,0003.24,0002.90
2022-03-10 05:30:00,,0824.2,5.00,0.00,21.4,20.0,00.0,30.5,22.8,06.0,0000.0,0004.43,0003.23,0002.92
2022-03-10 05:31:00,,0824.2,5.00,0.00,21.4,20.6,00.0,30.5,22.9,06.0,0000.0,0004.59,0003.26,0002.94
2022-03-10 05:32:00,,0824.3,5.00,0.00,21.5,21.7,00.0,30.5,23.2,06.0,0000.0,0004.66,0003.27,0002.93
2022-03-10 05:33:00,,0824.2,5.00,0.00,21.6,22.4,00.0,30.5,23.5,05.9,0000.0,0004.66,0003.28,0002.93
2022-03-10 05:34:00,,0824.2,5.00,0.00,21.7,22.2,00.0,30.6,23.6,05.9,0000.0,0004.56,0003.28,0002.95
2022-03-10 05:35:00,,0824.2,4.99,0.00,21.7,21.7,00.0,30.6,23.5,05.9,0000.0,0004.62,0003.28,0002.95
2022-03-10 05:36:00,,0824.1,5.01,0.00,21.7,21.4,00.0,30.6,23.4,05.9,0000.0,0004.47,0003.25,0002.92
2022-03-10 05:37:00,,0824.1,5.00,0.00,21.6,21.0,00.0,30.6,23.3,05.9,0000.0,0004.46,0003.24,0002.90
2022-03-10 05:38:00,,0824.1,4.99,0.00,21.6,20.8,00.0,30.5,23.2,05.9,0000.0,0004.53,0003.26,0002.89
2022-03-10 05:39:00,,0824.1,5.00,0.00,21.5,20.5,00.0,30.5,23.1,05.9,0000.0,0004.48,0003.25,0002.88
2022-03-10 05:40:00,,0824.1,5.01,0.00,21.4,20.2,00.0,30.5,22.9,06.0,0000.0,0004.49,0003.26,0002.87
2022-03-10 05:41:00,,0824.2,5.01,0.00,21.4,20.1,00.0,30.5,22.8,06.0,0000.0,0004.42,0003.25,0002.87
2022-03-10 05:42:00,,0824.3,4.98,0.00,21.4,21.0,00.0,30.5,23.0,06.0,0000.0,0004.32,0003.24,0002.90
2022-03-10 05:43:00,,0824.3,5.00,0.00,21.5,22.0,00.0,30.5,23.3,05.9,0000.0,0004.32,0003.25,0002.91
2022-03-10 05:44:00,,0824.2,5.01,0.00,21.7,22.5,00.0,30.6,23.5,05.9,0000.0,0004.39,0003.25,0002.91
2022-03-10 05:45:00,,0824.1,5.00,0.00,21.7,22.1,00.0,30.6,23.5,05.9,0000.0,0004.50,0003.26,0002.91
2022-03-10 05:46:00,,0824.1,5.01,0.00,21.7,21.6,00.0,30.6,23.4,05.9,0000.0,0004.42,0003.24,0002.90
2022-03-10 05:47:00,,0824.1,4.98,0.00,21.6,21.2,00.0,30.6,23.3,05.9,0000.0,0004.48,0003.26,0002.91
2022-03-10 05:48:00,,0824.1,5.00,0.00,21.6,20.8,00.0,30.6,23.2,05.9,0000.0,0004.64,0003.29,0002.92
2022-03-10 05:49:00,,0824.1,5.01,0.00,21.5,20.5,00.0,30.5,23.0,05.9,0000.0,0004.63,0003.28,0002.91
2022-03-10 05:50:00,,0824.1,5.01,0.00,21.4,20.3,00.0,30.5,22.9,06.0,0000.0,0004.58,0003.26,0002.90
2022-03-10 05:51:00,,0824.1,5.00,0.00,21.3,20.2,00.0,30.5,22.8,06.0,0000.0,0004.48,0003.24,0002.91
2022-03-10 05:52:00,,0824.1,5.00,0.00,21.4,20.9,00.0,30.5,22.9,06.0,0000.0,0004.47,0003.24,0002.91
2022-03-10 05:53:00,,0824.1,5.00,0.00,21.5,21.9,00.0,30.5,23.3,05.9,0000.0,0004.53,0003.24,0002.88
2022-03-10 05:54:00,,0824.1,5.00,0.00,21.7,22.5,00.0,30.6,23.6,05.9,0000.0,0004.49,0003.24,0002.87
2022-03-10 05:55:00,,0824.1,5.00,0.00,21.7,22.1,00.0,30.6,23.5,05.9,0000.0,0004.42,0003.23,0002.86
2022-03-10 05:56:00,,0824.1,5.01,0.00,21.7,21.6,00.0,30.6,23.4,05.9,0000.0,0004.27,0003.21,0002.86
2022-03-10 05:57:00,,0824.1,4.99,0.00,21.6,21.1,00.0,30.6,23.1,05.9,0000.0,0004.30,0003.22,0002.86
2022-03-10 05:58:00,,0824.2,5.00,0.00,21.5,20.7,00.0,30.5,22.9,05.9,0000.0,0004.30,0003.20,0002.83
2022-03-10 05:59:00,,0824.1,5.01,0.00,21.3,20.2,00.0,30.5,22.7,05.9,0000.0,0004.17,0003.16,0002.79
